[[{"header":{"parameterUnit":"m.s-1","parameterCategory":1,"la1":30.2991,"la2":30.254,"lo1":-89.0895,"lo2":-89.0444,"dy":0.0017,"dx":0.0017,"nx":28,"ny":28,"refTime":"2024-04-05T09:00:00:Z","depth":0,"parameterNumber":2,"parameterNumberName":"U-component_of_WINDS"},"data":[0,0,0,0,0,0,0,0,0,0,0,0,0,0,0,0,0,0,0,0,0,0,0,0,0,0,0,0,0,0,0,0,0,0,0,0,0,0,0,0,0,0,0,0,0,0,0,0,0,0,0,0,0,0,0,0,0,0,3.2901,3.2902,0,3.2994,3.2995,3.2996,3.2934,3.2931,3.2928,3.2926,3.3024,3.3029,3.3034,0,0,0,0,0,0,0,0,0,0,0,0,0,3.2675,3.2679,3.2901,3.2902,3.2903,3.2993,3.2995,3.2996,3.2935,3.2931,3.2928,3.2924,3.3022,3.3028,3.3035,0,0,0,0,0,0,0,0,0,0,0,0,0,3.2771,3.2681,3.29,3.2883,3.2883,3.2993,3.2995,3.2996,3.2935,3.2931,3.2927,3.2923,3.302,3.3028,3.3035,3.3169,0,0,3.3059,3.3063,0,0,0,0,0,0,0,0,3.2766,3.2779,3.2885,3.2885,3.2884,3.2948,3.2951,3.3054,3.2936,3.2915,3.2926,3.2921,3.3002,3.3011,3.3038,3.3173,3.3178,3.306,3.3065,3.3068,3.307,0,0,0,0,0,0,0,3.2759,3.2775,3.2937,3.2886,3.2886,3.2872,3.2881,3.297,3.2982,3.2917,3.2913,3.2924,3.3001,3.3031,3.304,3.3179,3.306,3.3067,3.3072,3.3075,3.3432,3.3437,0,0,0,0,0,0,3.2753,3.277,3.2934,3.294,3.2813,3.288,3.289,3.2932,3.298,3.2984,3.2928,3.2921,3.3019,3.3031,3.3043,3.3204,3.3068,3.3076,3.308,3.3427,3.3433,3.3438,0,0,0,0,0,0,3.2749,3.2768,3.2931,3.2854,3.2874,3.2888,3.2936,3.2936,3.2965,3.2989,3.2991,3.2955,3.3016,3.3032,3.3139,3.3207,3.3079,3.3086,3.3422,3.3429,3.3436,3.3527,0,0,0,0,0,0,3.2742,3.2767,3.2817,3.2855,3.2878,3.3024,3.294,3.2941,3.2978,3.297,3.3015,3.3018,3.3014,3.3127,3.3146,3.3215,3.3092,3.3416,3.3425,3.3433,3.3518,3.3536,3.3552,0,0,0,0,0,3.2734,3.2839,3.282,3.284,3.294,3.3028,3.304,3.3033,3.2984,3.3035,3.3051,3.3017,3.3196,3.3139,3.316,3.3232,3.3411,3.3422,3.3433,3.351,3.3533,3.3552,0,0,0,0,0,0,3.2808,3.2844,3.2823,3.2942,3.2982,3.3017,3.3081,3.3056,3.3112,3.3102,3.3091,3.3102,3.3213,3.3233,3.3168,3.3365,3.3296,3.3312,3.3348,3.337,3.3387,3.338,3.3099,0,0,0,0,0,3.2838,3.2905,3.2933,3.3036,3.3057,3.3066,3.3104,3.3094,3.3136,3.3153,3.3176,3.3218,3.3284,3.3328,3.339,3.3521,3.3531,3.3581,3.3598,3.3612,3.3626,3.3699,3.3723,3.3473,3.3473,3.3473,0,0,3.2901,3.2929,3.2972,3.3052,3.3081,3.3153,3.308,3.3158,3.3212,3.3165,3.3267,3.3286,3.3333,3.3453,3.3507,3.3473,3.3697,3.3626,3.3637,3.3643,3.3713,3.3736,3.3757,3.3481,3.3479,3.3478,0,0,3.3053,3.308,3.3169,3.3201,3.3248,3.3253,3.3275,3.3314,3.3324,3.3427,3.3394,3.3458,3.3571,3.3607,3.364,3.3808,3.378,3.3828,3.3918,3.3989,3.4009,3.4026,3.4088,3.411,3.3842,3.3842,3.3842,0,3.3126,3.323,3.3219,3.33,3.3337,3.3298,3.339,3.3422,3.3486,3.3514,3.3475,3.3618,3.3647,3.3775,3.3817,3.3844,3.387,3.3823,3.4007,3.4024,3.404,3.4099,3.4122,3.3848,3.3847,3.3846,3.3846,0,3.3318,3.3392,3.3459,3.3522,3.3567,3.3653,3.3657,3.3704,3.3691,3.3702,3.3808,3.3841,3.391,3.394,3.3929,3.4069,3.4047,3.4008,3.3938,3.407,3.4125,3.4147,3.3856,3.3854,3.3852,3.3851,0,0,3.3518,3.3575,3.36,3.3629,3.3679,3.3736,3.3822,3.3889,3.393,3.3977,3.405,3.4148,3.4113,3.415,3.4143,3.4206,3.4339,3.4159,3.416,3.4193,3.4498,3.4528,3.4554,3.4321,3.4325,3.4328,3.4495,0,3.3673,3.3821,3.3815,3.3954,3.4023,3.3988,3.4063,3.4103,3.4115,3.4177,3.4191,3.4261,3.4209,3.4232,3.4292,3.431,3.4401,3.4298,3.439,3.4394,3.438,3.4582,3.4613,3.4769,3.4516,3.452,3.4522,0,3.3873,3.3927,3.4073,3.4114,3.4143,3.421,3.4273,3.4331,3.4377,3.4382,3.4425,3.4408,3.4497,3.4425,3.4549,3.448,3.4517,3.4532,3.4538,3.4547,3.4466,3.4598,3.4818,3.4842,3.4556,3.4553,3.4551,0,3.4006,3.4115,3.4217,3.4243,3.4293,3.4341,3.4365,3.4406,3.4447,3.4502,3.453,3.4595,3.4631,3.4683,3.4685,3.4632,3.4811,3.4739,3.4819,3.482,3.4859,3.4856,3.5089,3.4882,3.4881,3.4881,3.4881,0,3.418,3.4272,3.4277,3.434,3.4442,3.4435,3.4537,3.4556,3.4593,3.466,3.4634,3.4698,3.4697,3.4763,3.4765,3.4869,3.4885,3.4893,3.4893,3.4896,3.4895,3.4921,3.4911,3.4887,3.4886,3.4885,3.4884,0,3.4346,3.4353,3.4462,3.4501,3.4513,3.4587,3.4621,3.4682,3.4693,3.4779,3.4799,3.4816,3.4893,3.49,3.4989,3.4991,3.5117,3.5104,3.5101,3.51,3.5181,3.5174,3.5439,3.5474,3.5243,3.5245,3.5247,0,3.4457,3.4526,3.4573,3.4616,3.4642,3.4712,3.4754,3.4751,3.4797,3.4855,3.491,3.4984,3.5043,3.5167,3.5189,3.5258,3.5248,3.5336,3.5258,3.526,3.5251,3.5247,3.5255,3.5351,3.5354,3.5356,3.5357,0,3.4654,3.4655,3.4716,3.4781,3.4832,3.4883,3.493,3.4967,3.497,3.5023,3.5101,3.5147,3.5238,3.5313,3.5381,3.5406,3.5384,3.5382,3.5405,3.5409,3.5405,3.541,3.5144,3.5376,3.5374,3.5373,3.5372,3.5371,3.4797,3.4858,3.4901,3.4971,3.5007,3.5052,3.5112,3.513,3.5195,3.5268,3.5263,3.535,3.5396,3.5485,3.5516,3.5585,3.5556,3.5588,3.5597,3.5605,3.5614,3.5393,3.5598,3.5597,3.5597,3.5596,3.5596,0,3.4994,3.502,3.5085,3.5152,3.5209,3.5181,3.5233,3.5282,3.5359,3.5403,3.5462,3.5553,3.5626,3.5654,3.5726,3.5776,3.5768,3.5795,3.5792,3.5799,3.5635,3.5609,3.5801,3.5801,3.5801,3.5801,3.5801,3.5801,3.5103,3.5206,3.5212,3.5333,3.5359,3.5443,3.5475,3.5518,3.5553,3.5656,3.5716,3.5734,3.5773,3.5848,3.5914,3.5921,3.5949,3.5982,3.5984,3.5831,3.581,3.5791,3.5766,3.5988,3.5988,3.6142,3.6144,3.6145]},{"header":{"parameterUnit":"m.s-1","parameterCategory":1,"la1":30.2991,"la2":30.254,"lo1":-89.0895,"lo2":-89.0444,"dy":0.0017,"dx":0.0017,"nx":28,"ny":28,"refTime":"2024-04-05T09:00:00:Z","depth":0,"parameterNumber":3,"parameterNumberName":"V-component_of_WINDS"},"data":[0,0,0,0,0,0,0,0,0,0,0,0,0,0,0,0,0,0,0,0,0,0,0,0,0,0,0,0,0,0,0,0,0,0,0,0,0,0,0,0,0,0,0,0,0,0,0,0,0,0,0,0,0,0,0,0,0,0,-0.3211,-0.3211,0,-0.3242,-0.3242,-0.3243,-0.3257,-0.3257,-0.3257,-0.3257,-0.329,-0.3291,-0.3292,0,0,0,0,0,0,0,0,0,0,0,0,0,-0.3165,-0.3166,-0.3211,-0.3211,-0.3212,-0.3242,-0.3242,-0.3243,-0.3257,-0.3257,-0.3257,-0.3257,-0.329,-0.3291,-0.3292,0,0,0,0,0,0,0,0,0,0,0,0,0,-0.3189,-0.3166,-0.3211,-0.3223,-0.3224,-0.3242,-0.3242,-0.3243,-0.3257,-0.3257,-0.3257,-0.3257,-0.329,-0.3291,-0.3292,-0.3301,0,0,-0.3296,-0.3297,0,0,0,0,0,0,0,0,-0.3188,-0.3191,-0.322,-0.3222,-0.3223,-0.3246,-0.3238,-0.3263,-0.3257,-0.3245,-0.3257,-0.3257,-0.3275,-0.3278,-0.3284,-0.3303,-0.3304,-0.3296,-0.3297,-0.3298,-0.3298,0,0,0,0,0,0,0,-0.3186,-0.319,-0.3223,-0.3221,-0.3223,-0.3226,-0.323,-0.3243,-0.326,-0.3246,-0.3247,-0.325,-0.3276,-0.3283,-0.3285,-0.3305,-0.3296,-0.3298,-0.3298,-0.3299,-0.3332,-0.3332,0,0,0,0,0,0,-0.3182,-0.3188,-0.3222,-0.3224,-0.3205,-0.3227,-0.3231,-0.3239,-0.326,-0.3263,-0.325,-0.3251,-0.328,-0.3283,-0.3286,-0.3298,-0.3298,-0.3299,-0.33,-0.3332,-0.3332,-0.3332,0,0,0,0,0,0,-0.3181,-0.3185,-0.3221,-0.3207,-0.3211,-0.3228,-0.3236,-0.3239,-0.3246,-0.3263,-0.3266,-0.3254,-0.328,-0.3284,-0.3297,-0.3299,-0.33,-0.3301,-0.3332,-0.3332,-0.3332,-0.3322,0,0,0,0,0,0,-0.318,-0.3185,-0.3188,-0.3206,-0.3212,-0.3231,-0.3236,-0.324,-0.3248,-0.3249,-0.3267,-0.327,-0.3281,-0.3295,-0.3298,-0.3301,-0.3302,-0.3332,-0.3332,-0.3332,-0.3322,-0.3321,-0.3321,0,0,0,0,0,-0.3178,-0.3185,-0.3189,-0.3193,-0.3217,-0.3231,-0.3235,-0.3246,-0.3248,-0.3251,-0.3263,-0.327,-0.3298,-0.3296,-0.33,-0.3303,-0.3332,-0.3332,-0.3332,-0.3322,-0.3321,-0.3321,0,0,0,0,0,0,-0.3167,-0.3187,-0.3192,-0.3204,-0.3216,-0.3234,-0.3239,-0.3245,-0.3257,-0.3258,-0.3272,-0.3276,-0.3288,-0.3297,-0.3294,-0.3313,-0.3316,-0.3317,-0.3307,-0.3306,-0.3306,-0.3303,-0.3303,0,0,0,0,0,-0.3166,-0.3176,-0.3193,-0.3202,-0.3208,-0.3222,-0.3229,-0.3237,-0.325,-0.3255,-0.3267,-0.328,-0.3292,-0.33,-0.3312,-0.3323,-0.3327,-0.3327,-0.3327,-0.3326,-0.3327,-0.3333,-0.3333,-0.3333,-0.3333,-0.3333,0,0,-0.3163,-0.3176,-0.3181,-0.32,-0.321,-0.322,-0.3226,-0.3237,-0.3245,-0.3257,-0.327,-0.3279,-0.3294,-0.3306,-0.3313,-0.3314,-0.3328,-0.3326,-0.3326,-0.3327,-0.3333,-0.3333,-0.3334,-0.3333,-0.3333,-0.3333,0,0,-0.3165,-0.3175,-0.3183,-0.3193,-0.3208,-0.3218,-0.322,-0.3237,-0.3243,-0.3256,-0.3265,-0.3275,-0.3295,-0.3305,-0.3313,-0.3317,-0.3324,-0.3321,-0.3318,-0.3325,-0.3325,-0.3325,-0.3326,-0.3327,-0.3322,-0.3322,-0.3322,0,-0.316,-0.3175,-0.3187,-0.3197,-0.3205,-0.3216,-0.3224,-0.3233,-0.3252,-0.3257,-0.3259,-0.3284,-0.3295,-0.3309,-0.331,-0.3316,-0.3319,-0.3319,-0.3324,-0.3324,-0.3324,-0.3326,-0.3326,-0.3321,-0.3321,-0.3321,-0.3321,0,-0.3169,-0.318,-0.3185,-0.3201,-0.321,-0.3219,-0.3232,-0.3239,-0.3246,-0.3255,-0.3268,-0.3282,-0.3297,-0.3301,-0.3308,-0.3316,-0.3317,-0.3321,-0.3324,-0.3324,-0.3325,-0.3326,-0.332,-0.3321,-0.3321,-0.3321,0,0,-0.3164,-0.3187,-0.3188,-0.3196,-0.3213,-0.3221,-0.3231,-0.3245,-0.3251,-0.3263,-0.3271,-0.3288,-0.3291,-0.33,-0.3309,-0.3314,-0.3316,-0.3317,-0.3318,-0.3317,-0.3326,-0.3323,-0.3323,-0.3321,-0.3321,-0.3321,-0.3325,0,-0.3168,-0.3185,-0.3196,-0.3209,-0.3218,-0.3229,-0.3237,-0.3248,-0.3257,-0.3267,-0.3277,-0.3288,-0.3292,-0.3298,-0.3304,-0.3315,-0.3318,-0.3314,-0.3329,-0.3329,-0.3325,-0.3324,-0.3321,-0.3324,-0.3326,-0.3326,-0.3326,0,-0.3174,-0.3185,-0.3199,-0.3215,-0.3219,-0.3227,-0.324,-0.3249,-0.3262,-0.3268,-0.3277,-0.3286,-0.3296,-0.3298,-0.3313,-0.3311,-0.3317,-0.3323,-0.3324,-0.3326,-0.3327,-0.3326,-0.3325,-0.3326,-0.3327,-0.3327,-0.3327,0,-0.3169,-0.3188,-0.3198,-0.3205,-0.3223,-0.3228,-0.3236,-0.3248,-0.3256,-0.3268,-0.3273,-0.3285,-0.3293,-0.3302,-0.3314,-0.3314,-0.3328,-0.3331,-0.3333,-0.3333,-0.3336,-0.3336,-0.3336,-0.334,-0.334,-0.334,-0.334,0,-0.3172,-0.318,-0.3196,-0.3203,-0.3212,-0.3224,-0.3233,-0.3242,-0.3253,-0.3262,-0.3271,-0.3279,-0.3294,-0.3304,-0.3313,-0.3324,-0.3327,-0.3332,-0.3335,-0.3332,-0.3331,-0.3336,-0.3336,-0.334,-0.334,-0.334,-0.334,0,-0.3168,-0.3179,-0.3191,-0.3207,-0.3211,-0.3218,-0.3232,-0.3238,-0.3247,-0.3258,-0.3261,-0.3276,-0.3288,-0.33,-0.3316,-0.3323,-0.3333,-0.3336,-0.3329,-0.333,-0.3332,-0.3331,-0.3336,-0.3337,-0.334,-0.334,-0.334,0,-0.3169,-0.3176,-0.3192,-0.3198,-0.3205,-0.3215,-0.3223,-0.3234,-0.3242,-0.3257,-0.3262,-0.3274,-0.3285,-0.3304,-0.3316,-0.3328,-0.3332,-0.3333,-0.3334,-0.333,-0.3332,-0.3331,-0.3332,-0.3332,-0.3332,-0.3332,-0.3332,0,-0.317,-0.3175,-0.3185,-0.3197,-0.3205,-0.3215,-0.3225,-0.323,-0.3244,-0.3252,-0.3264,-0.3272,-0.3288,-0.33,-0.3314,-0.3323,-0.333,-0.3331,-0.3333,-0.333,-0.3325,-0.3327,-0.3327,-0.3331,-0.3331,-0.3331,-0.3332,-0.3332,-0.3168,-0.3174,-0.3187,-0.3197,-0.3206,-0.3216,-0.3222,-0.3232,-0.3242,-0.3256,-0.3262,-0.3274,-0.3287,-0.3306,-0.3314,-0.3324,-0.3326,-0.3328,-0.3329,-0.3329,-0.3328,-0.3323,-0.3327,-0.3327,-0.3327,-0.3327,-0.3327,0,-0.317,-0.3178,-0.3187,-0.3201,-0.321,-0.3215,-0.3226,-0.3233,-0.3243,-0.3254,-0.3264,-0.3278,-0.329,-0.3303,-0.3315,-0.3321,-0.3324,-0.3324,-0.3323,-0.3325,-0.3326,-0.3323,-0.3321,-0.3321,-0.3321,-0.3321,-0.3321,-0.3321,-0.3171,-0.3181,-0.3187,-0.3202,-0.321,-0.3222,-0.3228,-0.3237,-0.3245,-0.326,-0.3269,-0.3278,-0.3289,-0.3303,-0.3314,-0.3317,-0.3322,-0.332,-0.3325,-0.3325,-0.3325,-0.3326,-0.3324,-0.3321,-0.3321,-0.3324,-0.3324,-0.3324]}]]